| time (UTC) | temp C | wind direction | speed KPH | gust KPH | rain 1hr cm | rain 24hr cm | rain mn cm | humidity % | barometer mb |
| 20260505124357 | 10 | 18 | 0.0 | 4.8 | 0.00 | 0.00 | 0.00 | 58 | |
| 20260505122339 | 9 | 25 | 3.2 | 0.0 | 0.00 | 0.00 | 0.00 | 60 | |
| 20260505121832 | 10 | 312 | 0.0 | 0.0 | 0.00 | 0.00 | 0.00 | 59 | |
| 20260505121328 | 10 | 312 | 0.0 | 0.0 | 0.00 | 0.00 | 0.00 | 58 | |
| 20260505120825 | 10 | 312 | 0.0 | 0.0 | 0.00 | 0.00 | 0.00 | 57 | |
| 20260505120321 | 10 | 312 | 0.0 | 9.7 | 0.00 | 0.00 | 0.00 | 56 | |
| 20260505115311 | 10 | 19 | 1.6 | 6.4 | 0.00 | 0.00 | 0.00 | 56 | |
| 20260505114807 | 11 | 2 | 4.8 | 6.4 | 0.00 | 0.00 | 0.00 | 55 | |
| 20260505114304 | 11 | 25 | 3.2 | 3.2 | 0.00 | 0.00 | 0.00 | 54 | |
| 20260505113758 | 11 | 15 | 3.2 | 9.7 | 0.00 | 0.00 | 0.00 | 54 | |
| 20260505113254 | 11 | 343 | 0.0 | 4.8 | 0.00 | 0.00 | 0.00 | 54 | |
| 20260505112242 | 11 | 36 | 3.2 | 6.4 | 0.00 | 0.00 | 0.00 | 56 | |
| 20260505111739 | 11 | 15 | 0.0 | 1.6 | 0.00 | 0.00 | 0.00 | 54 | |
| 20260505111236 | 11 | 331 | 1.6 | 4.8 | 0.00 | 0.00 | 0.00 | 53 | |
| 20260505110732 | 11 | 11 | 0.0 | 4.8 | 0.00 | 0.00 | 0.00 | 53 | |
| 20260505110229 | 11 | 9 | 3.2 | 8.0 | 0.00 | 0.00 | 0.00 | 53 | |
| 20260505102156 | 12 | 33 | 0.0 | 6.4 | 0.00 | 0.00 | 0.00 | 52 | |
| 20260505101651 | 11 | 306 | 0.0 | 6.4 | 0.00 | 0.00 | 0.00 | 53 | |
| 20260505100644 | 11 | 8 | 6.4 | 0.0 | 0.00 | 0.00 | 0.00 | 54 | |
| 20260505100141 | 11 | 23 | 0.0 | 3.2 | 0.00 | 0.00 | 0.00 | 53 | |
| 20260505095634 | 12 | 23 | 0.0 | 6.4 | 0.00 | 0.00 | 0.00 | 50 | |
| 20260505095131 | 12 | 30 | 4.8 | 11.3 | 0.00 | 0.00 | 0.00 | 50 | |
| 20260505094627 | 12 | 33 | 6.4 | 9.7 | 0.00 | 0.00 | 0.00 | 50 | |
| 20260505093616 | 12 | 25 | 4.8 | 8.0 | 0.00 | 0.00 | 0.00 | 52 | |
| 20260505093112 | 12 | 11 | 3.2 | 6.4 | 0.00 | 0.00 | 0.00 | 52 | |
| 20260505092102 | 12 | 28 | 0.0 | 8.0 | 0.00 | 0.00 | 0.00 | 50 | |
| 20260505091559 | 12 | 14 | 3.2 | 4.8 | 0.00 | 0.00 | 0.00 | 50 | |
| 20260505091055 | 13 | 16 | 3.2 | 8.0 | 0.00 | 0.00 | 0.00 | 50 | |
| 20260505090549 | 13 | 19 | 3.2 | 8.0 | 0.00 | 0.00 | 0.00 | 50 | |
| 20260505090044 | 13 | 7 | 3.2 | 6.4 | 0.00 | 0.00 | 0.00 | 50 | |
| 20260505085540 | 12 | 23 | 6.4 | 8.0 | 0.00 | 0.00 | 0.00 | 51 | |
| 20260505084529 | 12 | 32 | 4.8 | 6.4 | 0.00 | 0.00 | 0.00 | 51 | |
| 20260505084026 | 13 | 306 | 3.2 | 8.0 | 0.00 | 0.00 | 0.00 | 49 | |
| 20260505083519 | 13 | 8 | 6.4 | 8.0 | 0.00 | 0.00 | 0.00 | 49 | |
| 20260505083016 | 13 | 16 | 6.4 | 6.4 | 0.00 | 0.00 | 0.00 | 50 | |
| 20260505082009 | 13 | 7 | 0.0 | 0.0 | 0.00 | 0.00 | 0.00 | 48 | |
| 20260505081502 | 13 | 7 | 0.0 | 0.0 | 0.00 | 0.00 | 0.00 | 47 | |
| 20260505080958 | 13 | 7 | 0.0 | 0.0 | 0.00 | 0.00 | 0.00 | 47 | |
| 20260505080455 | 14 | 7 | 0.0 | 0.0 | 0.00 | 0.00 | 0.00 | 47 | |
| 20260505075946 | 14 | 7 | 0.0 | 4.8 | 0.00 | 0.00 | 0.00 | 46 | |
| 20260505074935 | 14 | 18 | 3.2 | 8.0 | 0.00 | 0.00 | 0.00 | 46 | |
| 20260505074427 | 15 | 23 | 0.0 | 3.2 | 0.00 | 0.00 | 0.00 | 45 | |
| 20260505073924 | 15 | 9 | 1.6 | 3.2 | 0.00 | 0.00 | 0.00 | 44 | |
| 20260505073420 | 15 | 23 | 1.6 | 3.2 | 0.00 | 0.00 | 0.00 | 43 | |
| 20260505072917 | 15 | 206 | 0.0 | 4.8 | 0.00 | 0.00 | 0.00 | 43 | |
| 20260505072412 | 15 | 22 | 3.2 | 8.0 | 0.00 | 0.00 | 0.00 | 43 | |
| 20260505071906 | 15 | 0 | 4.8 | 9.7 | 0.00 | 0.00 | 0.00 | 43 | |
| 20260505071402 | 16 | 358 | 3.2 | 8.0 | 0.00 | 0.00 | 0.00 | 42 | |
| 20260505070859 | 15 | 16 | 4.8 | 11.3 | 0.00 | 0.00 | 0.00 | 42 | |
| 20260505070352 | 16 | 327 | 6.4 | 9.7 | 0.00 | 0.00 | 0.00 | 42 | |
| 20260505065849 | 16 | 1 | 4.8 | 16.1 | 0.00 | 0.00 | 0.00 | 41 | |
| 20260505065345 | 15 | 306 | 6.4 | 14.5 | 0.00 | 0.00 | 0.00 | 43 | |
| 20260505064839 | 15 | 355 | 9.7 | 11.3 | 0.00 | 0.00 | 0.00 | 43 | |
| 20260505064335 | 15 | 23 | 6.4 | 8.0 | 0.00 | 0.00 | 0.00 | 44 | |
| 20260505063832 | 16 | 16 | 6.4 | 6.4 | 0.00 | 0.00 | 0.00 | 43 | |
| 20260505063328 | 15 | 330 | 3.2 | 8.0 | 0.00 | 0.00 | 0.00 | 43 | |
| 20260505062820 | 16 | 315 | 6.4 | 6.4 | 0.00 | 0.00 | 0.00 | 43 | |
| 20260505062315 | 16 | 345 | 3.2 | 8.0 | 0.00 | 0.00 | 0.00 | 43 | |
| 20260505061304 | 16 | 14 | 3.2 | 8.0 | 0.00 | 0.00 | 0.00 | 43 | |
| 20260505060254 | 16 | 15 | 6.4 | 9.7 | 0.00 | 0.00 | 0.00 | 43 | |
| 20260505055750 | 16 | 39 | 1.6 | 6.4 | 0.00 | 0.00 | 0.00 | 42 | |
| 20260505055246 | 17 | 9 | 4.8 | 9.7 | 0.00 | 0.00 | 0.00 | 41 | |
| 20260505054740 | 17 | 8 | 8.0 | 9.7 | 0.00 | 0.00 | 0.00 | 41 | |
| 20260505053733 | 17 | 319 | 0.0 | 8.0 | 0.00 | 0.00 | 0.00 | 41 | |
| 20260505053230 | 17 | 355 | 6.4 | 8.0 | 0.00 | 0.00 | 0.00 | 41 | |
| 20260505052726 | 16 | 5 | 0.0 | 8.0 | 0.00 | 0.00 | 0.00 | 42 | |
| 20260505052219 | 16 | 21 | 3.2 | 9.7 | 0.00 | 0.00 | 0.00 | 42 | |
| 20260505051716 | 17 | 25 | 6.4 | 6.4 | 0.00 | 0.00 | 0.00 | 41 | |
| 20260505051213 | 17 | 338 | 1.6 | 6.4 | 0.00 | 0.00 | 0.00 | 39 | |
| 20260505050706 | 18 | 240 | 3.2 | 6.4 | 0.00 | 0.00 | 0.00 | 39 | |
| 20260505050202 | 17 | 347 | 3.2 | 8.0 | 0.00 | 0.00 | 0.00 | 38 | |
| 20260505041626 | 20 | 299 | 0.0 | 11.3 | 0.00 | 0.00 | 0.00 | 34 | |
| 20260505041123 | 20 | 345 | 9.7 | 12.9 | 0.00 | 0.00 | 0.00 | 33 | |
| 20260505040619 | 20 | 358 | 9.7 | 14.5 | 0.00 | 0.00 | 0.00 | 32 | |
| 20260505035607 | 20 | 307 | 11.3 | 11.3 | 0.00 | 0.00 | 0.00 | 33 | |
| 20260505035100 | 20 | 313 | 9.7 | 14.5 | 0.00 | 0.00 | 0.00 | 33 | |
| 20260505034049 | 20 | 322 | 9.7 | 8.0 | 0.00 | 0.00 | 0.00 | 33 | |
| 20260505033546 | 20 | 357 | 3.2 | 8.0 | 0.00 | 0.00 | 0.00 | 32 | |
| 20260505033042 | 21 | 358 | 8.0 | 4.8 | 0.00 | 0.00 | 0.00 | 31 | |
| 20260505032539 | 22 | 330 | 1.6 | 4.8 | 0.00 | 0.00 | 0.00 | 30 | |
| 20260505031028 | 23 | 343 | 3.2 | 6.4 | 0.00 | 0.00 | 0.00 | 28 | |
| 20260505030525 | 23 | 274 | 4.8 | 4.8 | 0.00 | 0.00 | 0.00 | 27 | |
| 20260505025014 | 25 | 234 | 4.8 | 11.3 | 0.00 | 0.00 | 0.00 | 24 | |
| 20260505024507 | 25 | 255 | 6.4 | 11.3 | 0.00 | 0.00 | 0.00 | 24 | |
| 20260505024004 | 25 | 247 | 3.2 | 12.9 | 0.00 | 0.00 | 0.00 | 23 | |
| 20260505023500 | 25 | 246 | 6.4 | 14.5 | 0.00 | 0.00 | 0.00 | 23 | |
| 20260505022957 | 25 | 240 | 11.3 | 14.5 | 0.00 | 0.00 | 0.00 | 22 | |
| 20260505022450 | 25 | 302 | 6.4 | 14.5 | 0.00 | 0.00 | 0.00 | 22 | |
| 20260505021945 | 25 | 258 | 11.3 | 19.3 | 0.00 | 0.00 | 0.00 | 22 | |
| 20260505021442 | 25 | 271 | 11.3 | 22.5 | 0.00 | 0.00 | 0.00 | 21 | |
| 20260505020434 | 25 | 257 | 9.7 | 19.3 | 0.00 | 0.00 | 0.00 | 22 | |
| 20260505015930 | 26 | 262 | 11.3 | 19.3 | 0.00 | 0.00 | 0.00 | 21 | |
| 20260505014918 | 26 | 233 | 6.4 | 16.1 | 0.00 | 0.00 | 0.00 | 22 | |
| 20260505014414 | 26 | 226 | 12.9 | 17.7 | 0.00 | 0.00 | 0.00 | 22 | |
| 20260505013404 | 26 | 250 | 17.7 | 19.3 | 0.00 | 0.00 | 0.00 | 21 | |
| 20260505012900 | 26 | 248 | 14.5 | 19.3 | 0.00 | 0.00 | 0.00 | 21 | |
| 20260505012357 | 26 | 255 | 16.1 | 25.7 | 0.00 | 0.00 | 0.00 | 22 | |
| 20260505011347 | 26 | 215 | 16.1 | 24.1 | 0.00 | 0.00 | 0.00 | 21 | |
| 20260505010842 | 26 | 251 | 9.7 | 22.5 | 0.00 | 0.00 | 0.00 | 21 | |
| 20260505010339 | 26 | 236 | 16.1 | 20.9 | 0.00 | 0.00 | 0.00 | 20 | |
| 20260505005835 | 26 | 264 | 12.9 | 24.1 | 0.00 | 0.00 | 0.00 | 21 | |
| 20260505004826 | 26 | 244 | 9.7 | 19.3 | 0.00 | 0.00 | 0.00 | 21 | |
| 20260505004322 | 26 | 229 | 8.0 | 19.3 | 0.00 | 0.00 | 0.00 | 20 | |
| 20260505003814 | 27 | 209 | 16.1 | 27.4 | 0.00 | 0.00 | 0.00 | 21 | |
| 20260505003311 | 26 | 239 | 20.9 | 19.3 | 0.00 | 0.00 | 0.00 | 20 | |
| 20260505002808 | 27 | 265 | 11.3 | 16.1 | 0.00 | 0.00 | 0.00 | 22 | |
| 20260505002304 | 26 | 234 | 11.3 | 22.5 | 0.00 | 0.00 | 0.00 | 21 | |
| 20260505000749 | 26 | 223 | 11.3 | 22.5 | 0.00 | 0.00 | 0.00 | 20 | |
| 20260505000243 | 26 | 230 | 16.1 | 24.1 | 0.00 | 0.00 | 0.00 | 22 | |
| 20260504235231 | 26 | 234 | 17.7 | 24.1 | 0.00 | 0.00 | 0.00 | 21 | |
| 20260504234727 | 26 | 227 | 16.1 | 25.7 | 0.00 | 0.00 | 0.00 | 22 | |
| 20260504234223 | 26 | 236 | 20.9 | 22.5 | 0.00 | 0.00 | 0.00 | 22 | |
| 20260504232206 | 27 | 239 | 20.9 | 22.5 | 0.00 | 0.00 | 0.00 | 20 | |
| 20260504231659 | 27 | 227 | 17.7 | 16.1 | 0.00 | 0.00 | 0.00 | 21 | |
| 20260504231155 | 27 | 315 | 6.4 | 19.3 | 0.00 | 0.00 | 0.00 | 22 | |
| 20260504230652 | 27 | 279 | 3.2 | 19.3 | 0.00 | 0.00 | 0.00 | 21 | |
| 20260504225641 | 27 | 203 | 17.7 | 19.3 | 0.00 | 0.00 | 0.00 | 22 | |
| 20260504224126 | 26 | 236 | 9.7 | 19.3 | 0.00 | 0.00 | 0.00 | 21 | |
| 20260504223621 | 27 | 253 | 16.1 | 20.9 | 0.00 | 0.00 | 0.00 | 22 | |
| 20260504223118 | 26 | 195 | 8.0 | 16.1 | 0.00 | 0.00 | 0.00 | 22 | |
| 20260504222614 | 27 | 227 | 4.8 | 16.1 | 0.00 | 0.00 | 0.00 | 21 | |
| 20260504222110 | 27 | 215 | 11.3 | 16.1 | 0.00 | 0.00 | 0.00 | 21 | |
| 20260504221102 | 27 | 194 | 12.9 | 20.9 | 0.00 | 0.00 | 0.00 | 21 | |
| 20260504220558 | 27 | 199 | 8.0 | 14.5 | 0.00 | 0.00 | 0.00 | 21 | |
| 20260504220052 | 27 | 208 | 11.3 | 17.7 | 0.00 | 0.00 | 0.00 | 20 | |
| 20260504215549 | 27 | 198 | 12.9 | 17.7 | 0.00 | 0.00 | 0.00 | 20 | |
| 20260504214542 | 26 | 277 | 3.2 | 24.1 | 0.00 | 0.00 | 0.00 | 22 | |
| 20260504213532 | 27 | 300 | 6.4 | 16.1 | 0.00 | 0.00 | 0.00 | 19 | |
| 20260504213028 | 28 | 229 | 11.3 | 16.1 | 0.00 | 0.00 | 0.00 | 20 | |
| 20260504212520 | 27 | 237 | 6.4 | 17.7 | 0.00 | 0.00 | 0.00 | 23 | |
| 20260504212017 | 26 | 255 | 9.7 | 19.3 | 0.00 | 0.00 | 0.00 | 20 | |
| 20260504211513 | 26 | 234 | 17.7 | 11.3 | 0.00 | 0.00 | 0.00 | 21 | |
| 20260504211010 | 26 | 178 | 8.0 | 17.7 | 0.00 | 0.00 | 0.00 | 21 | |
| 20260504210503 | 26 | 196 | 16.1 | 20.9 | 0.00 | 0.00 | 0.00 | 24 | |
| 20260504205959 | 26 | 202 | 12.9 | 19.3 | 0.00 | 0.00 | 0.00 | 21 | |
| 20260504205451 | 26 | 293 | 14.5 | 24.1 | 0.00 | 0.00 | 0.00 | 21 | |
| 20260504204948 | 26 | 201 | 14.5 | 16.1 | 0.00 | 0.00 | 0.00 | 21 | |
| 20260504204444 | 27 | 201 | 14.5 | 16.1 | 0.00 | 0.00 | 0.00 | 22 | |
| 20260504203941 | 27 | 178 | 4.8 | 25.7 | 0.00 | 0.00 | 0.00 | 20 | |
| 20260504203437 | 26 | 298 | 0.0 | 22.5 | 0.00 | 0.00 | 0.00 | 23 | |
| 20260504202430 | 26 | 251 | 14.5 | 24.1 | 0.00 | 0.00 | 0.00 | 22 | |
| 20260504201927 | 26 | 292 | 8.0 | 17.7 | 0.00 | 0.00 | 0.00 | 21 | |
| 20260504201423 | 27 | 278 | 3.2 | 17.7 | 0.00 | 0.00 | 0.00 | 23 | |
| 20260504200918 | 26 | 189 | 12.9 | 19.3 | 0.00 | 0.00 | 0.00 | 24 | |
| 20260504200410 | 25 | 199 | 14.5 | 17.7 | 0.00 | 0.00 | 0.00 | 24 | |
| 20260504195403 | 26 | 230 | 4.8 | 22.5 | 0.00 | 0.00 | 0.00 | 24 | |
| 20260504194857 | 25 | 234 | 14.5 | 19.3 | 0.00 | 0.00 | 0.00 | 25 | |
| 20260504194353 | 25 | 205 | 14.5 | 16.1 | 0.00 | 0.00 | 0.00 | 24 | |
| 20260504193849 | 25 | 232 | 8.0 | 17.7 | 0.00 | 0.00 | 0.00 | 24 | |
| 20260504193343 | 25 | 281 | 12.9 | 19.3 | 0.00 | 0.00 | 0.00 | 25 | |
| 20260504192840 | 25 | 220 | 12.9 | 14.5 | 0.00 | 0.00 | 0.00 | 25 | |
| 20260504192336 | 25 | 212 | 11.3 | 17.7 | 0.00 | 0.00 | 0.00 | 27 | |
| 20260504191832 | 25 | 175 | 8.0 | 14.5 | 0.00 | 0.00 | 0.00 | 26 | |
| 20260504191329 | 25 | 201 | 9.7 | 16.1 | 0.00 | 0.00 | 0.00 | 27 | |
| 20260504190826 | 24 | 277 | 11.3 | 16.1 | 0.00 | 0.00 | 0.00 | 28 | |
| 20260504185816 | 24 | 164 | 11.3 | 14.5 | 0.00 | 0.00 | 0.00 | 28 | |
| 20260504185312 | 25 | 53 | 6.4 | 9.7 | 0.00 | 0.00 | 0.00 | 27 | |
| 20260504184806 | 23 | 340 | 3.2 | 11.3 | 0.00 | 0.00 | 0.00 | 30 | |
| 20260504183758 | 22 | 232 | 9.7 | 12.9 | 0.00 | 0.00 | 0.00 | 31 | |
| 20260504183255 | 23 | 209 | 8.0 | 9.7 | 0.00 | 0.00 | 0.00 | 29 | |
| 20260504182748 | 23 | 272 | 4.8 | 4.8 | 0.00 | 0.00 | 0.00 | 30 | |
| 20260504182244 | 22 | 15 | 1.6 | 8.0 | 0.00 | 0.00 | 0.00 | 31 | |
| 20260504181737 | 22 | 205 | 1.6 | 6.4 | 0.00 | 0.00 | 0.00 | 32 | |
| 20260504181233 | 22 | 237 | 3.2 | 8.0 | 0.00 | 0.00 | 0.00 | 34 | |
| 20260504180729 | 21 | 156 | 6.4 | 11.3 | 0.00 | 0.00 | 0.00 | 34 | |
| 20260504180225 | 21 | 258 | 6.4 | 11.3 | 0.00 | 0.00 | 0.00 | 35 | |
| 20260504175721 | 21 | 219 | 9.7 | 14.5 | 0.00 | 0.00 | 0.00 | 35 | |
| 20260504175216 | 21 | 136 | 0.0 | 9.7 | 0.00 | 0.00 | 0.00 | 34 | |
| 20260504174713 | 21 | 198 | 6.4 | 0.0 | 0.00 | 0.00 | 0.00 | 34 | |
| 20260504174209 | 20 | 171 | 0.0 | 0.0 | 0.00 | 0.00 | 0.00 | 34 | |
| 20260504173702 | 21 | 171 | 0.0 | 0.0 | 0.00 | 0.00 | 0.00 | 34 | |
| 20260504172655 | 20 | 171 | 0.0 | 9.7 | 0.00 | 0.00 | 0.00 | 36 | |
| 20260504172151 | 20 | 194 | 8.0 | 8.0 | 0.00 | 0.00 | 0.00 | 38 | |
| 20260504171645 | 20 | 180 | 3.2 | 11.3 | 0.00 | 0.00 | 0.00 | 41 | |
| 20260504171141 | 19 | 208 | 3.2 | 6.4 | 0.00 | 0.00 | 0.00 | 40 | |
| 20260504170638 | 19 | 241 | 3.2 | 8.0 | 0.00 | 0.00 | 0.00 | 42 | |
| 20260504170131 | 18 | 172 | 0.0 | 8.0 | 0.00 | 0.00 | 0.00 | 42 | |
| 20260504150951 | 15 | 202 | 0.0 | 0.0 | 0.00 | 0.00 | 0.00 | 52 | |
| 20260504150443 | 14 | 202 | 0.0 | 0.0 | 0.00 | 0.00 | 0.00 | 54 | |
| 20260504140853 | 12 | 33 | 0.0 | 0.0 | 0.00 | 0.00 | 0.00 | 58 | |
| 20260504140350 | 12 | 33 | 0.0 | 0.0 | 0.00 | 0.00 | 0.00 | 60 |